Year,Month,Day,Hour,Minute,Value (Times are PST for barometer in hPa)
2022,12,25,00,00,1023.98
2022,12,25,00,01,1024.08
2022,12,25,00,02,1024.08
2022,12,25,00,03,1024.11
2022,12,25,00,04,1024.15
2022,12,25,00,05,1024.11
2022,12,25,00,06,1024.18
2022,12,25,00,07,1024.18
2022,12,25,00,08,1024.15
2022,12,25,00,09,1024.18
2022,12,25,00,10,1024.11
2022,12,25,00,11,1024.18
2022,12,25,00,12,1024.18
2022,12,25,00,13,1024.15
2022,12,25,00,14,1024.21
2022,12,25,00,15,1024.28
2022,12,25,00,16,1024.28
2022,12,25,00,17,1024.38
2022,12,25,00,18,1024.42
2022,12,25,00,19,1024.38
2022,12,25,00,20,1024.42
2022,12,25,00,21,1024.45
2022,12,25,00,22,1024.48
2022,12,25,00,23,1024.52
2022,12,25,00,24,1024.59
2022,12,25,00,25,1024.59
2022,12,25,00,26,1024.59
2022,12,25,00,27,1024.62
2022,12,25,00,28,1024.59
2022,12,25,00,29,1024.65
2022,12,25,00,30,1024.65
2022,12,25,00,31,1024.65
2022,12,25,00,32,1024.62
2022,12,25,00,33,1024.59
2022,12,25,00,34,1024.59
2022,12,25,00,35,1024.55
2022,12,25,00,36,1024.59
2022,12,25,00,37,1024.59
2022,12,25,00,38,1024.65
2022,12,25,00,39,1024.65
2022,12,25,00,40,1024.65
2022,12,25,00,41,1024.65
2022,12,25,00,42,1024.59
2022,12,25,00,43,1024.52
2022,12,25,00,44,1024.55
2022,12,25,00,45,1024.59
2022,12,25,00,46,1024.59
2022,12,25,00,47,1024.59
2022,12,25,00,48,1024.59
2022,12,25,00,49,1024.62
2022,12,25,00,50,1024.65
2022,12,25,00,51,1024.69
2022,12,25,00,52,1024.69
2022,12,25,00,53,1024.69
2022,12,25,00,54,1024.62
2022,12,25,00,55,1024.59
2022,12,25,00,56,1024.59
2022,12,25,00,57,1024.62
2022,12,25,00,58,1024.59
2022,12,25,00,59,1024.55
2022,12,25,01,00,1024.55
2022,12,25,01,01,1024.59
2022,12,25,01,02,1024.59
2022,12,25,01,03,1024.55
2022,12,25,01,04,1024.55
2022,12,25,01,05,1024.48
2022,12,25,01,06,1024.48
2022,12,25,01,07,1024.52
2022,12,25,01,08,1024.48
2022,12,25,01,09,1024.42
2022,12,25,01,10,1024.38
2022,12,25,01,11,1024.42
2022,12,25,01,12,1024.38
2022,12,25,01,13,1024.35
2022,12,25,01,14,1024.35
2022,12,25,01,15,1024.32
2022,12,25,01,16,1024.28
2022,12,25,01,17,1024.28
2022,12,25,01,18,1024.32
2022,12,25,01,19,1024.32
2022,12,25,01,20,1024.32
2022,12,25,01,21,1024.32
2022,12,25,01,22,1024.28
2022,12,25,01,23,1024.32
2022,12,25,01,24,1024.32
2022,12,25,01,25,1024.35
2022,12,25,01,26,1024.45
2022,12,25,01,27,1024.48
2022,12,25,01,28,1024.52
2022,12,25,01,29,1024.55
2022,12,25,01,30,1024.52
2022,12,25,01,31,1024.45
2022,12,25,01,32,1024.48
2022,12,25,01,33,1024.45
2022,12,25,01,34,1024.38
2022,12,25,01,35,1024.38
2022,12,25,01,36,1024.35
2022,12,25,01,37,1024.35
2022,12,25,01,38,1024.32
2022,12,25,01,39,1024.28
2022,12,25,01,40,1024.25
2022,12,25,01,41,1024.28
2022,12,25,01,42,1024.21
2022,12,25,01,43,1024.28
2022,12,25,01,44,1024.32
2022,12,25,01,45,1024.32
2022,12,25,01,46,1024.32
2022,12,25,01,47,1024.28
2022,12,25,01,48,1024.28
2022,12,25,01,49,1024.35
2022,12,25,01,50,1024.35
2022,12,25,01,51,1024.38
2022,12,25,01,52,1024.38
2022,12,25,01,53,1024.32
2022,12,25,01,54,1024.38
2022,12,25,01,55,1024.38
2022,12,25,01,56,1024.35
2022,12,25,01,57,1024.38
2022,12,25,01,58,1024.35
2022,12,25,01,59,1024.35
2022,12,25,02,00,1024.32
2022,12,25,02,01,1024.25
2022,12,25,02,02,1024.25
2022,12,25,02,03,1024.21
2022,12,25,02,04,1024.15
2022,12,25,02,05,1024.21
2022,12,25,02,06,1024.21
2022,12,25,02,07,1024.21
2022,12,25,02,08,1024.21
2022,12,25,02,09,1024.21
2022,12,25,02,10,1024.21
2022,12,25,02,11,1024.21
2022,12,25,02,12,1024.18
2022,12,25,02,13,1024.18
2022,12,25,02,14,1024.18
2022,12,25,02,15,1024.15
2022,12,25,02,16,1024.18
2022,12,25,02,17,1024.18
2022,12,25,02,18,1024.21
2022,12,25,02,19,1024.21
2022,12,25,02,20,1024.21
2022,12,25,02,21,1024.21
2022,12,25,02,22,1024.21
2022,12,25,02,23,1024.21
2022,12,25,02,24,1024.28
2022,12,25,02,25,1024.28
2022,12,25,02,26,1024.28
2022,12,25,02,27,1024.28
2022,12,25,02,28,1024.32
2022,12,25,02,29,1024.32
2022,12,25,02,30,1024.32
2022,12,25,02,31,1024.32
2022,12,25,02,32,1024.32
2022,12,25,02,33,1024.32
2022,12,25,02,34,1024.32
2022,12,25,02,35,1024.32
2022,12,25,02,36,1024.32
2022,12,25,02,37,1024.25
2022,12,25,02,38,1024.32
2022,12,25,02,39,1024.32
2022,12,25,02,40,1024.35
2022,12,25,02,41,1024.38
2022,12,25,02,42,1024.42
2022,12,25,02,43,1024.45
2022,12,25,02,44,1024.42
2022,12,25,02,45,1024.48
2022,12,25,02,46,1024.42
2022,12,25,02,47,1024.45
2022,12,25,02,48,1024.48
2022,12,25,02,49,1024.48
2022,12,25,02,50,1024.48
2022,12,25,02,51,1024.55
2022,12,25,02,52,1024.55
2022,12,25,02,53,1024.52
2022,12,25,02,54,1024.52
2022,12,25,02,55,1024.52
2022,12,25,02,56,1024.62
2022,12,25,02,57,1024.59
2022,12,25,02,58,1024.55
2022,12,25,02,59,1024.59
2022,12,25,03,00,1024.59
2022,12,25,03,01,1024.62
2022,12,25,03,02,1024.62
2022,12,25,03,03,1024.59
2022,12,25,03,04,1024.55
2022,12,25,03,05,1024.55
2022,12,25,03,06,1024.52
2022,12,25,03,07,1024.52
2022,12,25,03,08,1024.52
2022,12,25,03,09,1024.52
2022,12,25,03,10,1024.52
2022,12,25,03,11,1024.55
2022,12,25,03,12,1024.55
2022,12,25,03,13,1024.52
2022,12,25,03,14,1024.45
2022,12,25,03,15,1024.48
2022,12,25,03,16,1024.48
2022,12,25,03,17,1024.48
2022,12,25,03,18,1024.52
2022,12,25,03,19,1024.55
2022,12,25,03,20,1024.52
2022,12,25,03,21,1024.59
2022,12,25,03,22,1024.62
2022,12,25,03,23,1024.62
2022,12,25,03,24,1024.62
2022,12,25,03,25,1024.59
2022,12,25,03,26,1024.59
2022,12,25,03,27,1024.52
2022,12,25,03,28,1024.52
2022,12,25,03,29,1024.52
2022,12,25,03,30,1024.48
2022,12,25,03,31,1024.48
2022,12,25,03,32,1024.55
2022,12,25,03,33,1024.59
2022,12,25,03,34,1024.65
2022,12,25,03,35,1024.69
2022,12,25,03,36,1024.72
2022,12,25,03,37,1024.72
2022,12,25,03,38,1024.65
2022,12,25,03,39,1024.62
2022,12,25,03,40,1024.65
2022,12,25,03,41,1024.65
2022,12,25,03,42,1024.62
2022,12,25,03,43,1024.65
2022,12,25,03,44,1024.65
2022,12,25,03,45,1024.69
2022,12,25,03,46,1024.69
2022,12,25,03,47,1024.69
2022,12,25,03,48,1024.72
2022,12,25,03,49,1024.76
2022,12,25,03,50,1024.79
2022,12,25,03,51,1024.82
2022,12,25,03,52,1024.82
2022,12,25,03,53,1024.79
2022,12,25,03,54,1024.82
2022,12,25,03,55,1024.86
2022,12,25,03,56,1024.89
2022,12,25,03,57,1024.89
2022,12,25,03,58,1024.89
2022,12,25,03,59,1024.89
2022,12,25,04,00,1024.86
2022,12,25,04,01,1024.86
2022,12,25,04,02,1024.86
2022,12,25,04,03,1024.86
2022,12,25,04,04,1024.79
2022,12,25,04,05,1024.79
2022,12,25,04,06,1024.79
2022,12,25,04,07,1024.86
2022,12,25,04,08,1024.89
2022,12,25,04,09,1024.89
2022,12,25,04,10,1024.86
2022,12,25,04,11,1024.82
2022,12,25,04,12,1024.89
2022,12,25,04,13,1024.82
2022,12,25,04,14,1024.82
2022,12,25,04,15,1024.86
2022,12,25,04,16,1024.86
2022,12,25,04,17,1024.82
2022,12,25,04,18,1024.86
2022,12,25,04,19,1024.82
2022,12,25,04,20,1024.79
2022,12,25,04,21,1024.79
2022,12,25,04,22,1024.79
2022,12,25,04,23,1024.72
2022,12,25,04,24,1024.62
2022,12,25,04,25,1024.62
2022,12,25,04,26,1024.59
2022,12,25,04,27,1024.59
2022,12,25,04,28,1024.59
2022,12,25,04,29,1024.62
2022,12,25,04,30,1024.62
2022,12,25,04,31,1024.59
2022,12,25,04,32,1024.48
2022,12,25,04,33,1024.45
2022,12,25,04,34,1024.41
2022,12,25,04,35,1024.28
2022,12,25,04,36,1024.28
2022,12,25,04,37,1024.15
2022,12,25,04,38,1024.15
2022,12,25,04,39,1024.11
2022,12,25,04,40,1024.08
2022,12,25,04,41,1024.08
2022,12,25,04,42,1024.11
2022,12,25,04,43,1024.08
2022,12,25,04,44,1024.08
2022,12,25,04,45,1024.11
2022,12,25,04,46,1024.01
2022,12,25,04,47,1023.98
2022,12,25,04,48,1023.98
2022,12,25,04,49,1023.94
2022,12,25,04,50,1023.91
2022,12,25,04,51,1023.94
2022,12,25,04,52,1023.98
2022,12,25,04,53,1023.94
2022,12,25,04,54,1023.94
2022,12,25,04,55,1023.98
2022,12,25,04,56,1023.98
2022,12,25,04,57,1024.08
2022,12,25,04,58,1024.11
2022,12,25,04,59,1024.08
2022,12,25,05,00,1024.15
2022,12,25,05,01,1024.15
2022,12,25,05,02,1024.15
2022,12,25,05,03,1024.15
2022,12,25,05,04,1024.21
2022,12,25,05,05,1024.25
2022,12,25,05,06,1024.21
2022,12,25,05,07,1024.25
2022,12,25,05,08,1024.25
2022,12,25,05,09,1024.28
2022,12,25,05,10,1024.28
2022,12,25,05,11,1024.35
2022,12,25,05,12,1024.32
2022,12,25,05,13,1024.32
2022,12,25,05,14,1024.35
2022,12,25,05,15,1024.32
2022,12,25,05,16,1024.32
2022,12,25,05,17,1024.32
2022,12,25,05,18,1024.32
2022,12,25,05,19,1024.38
2022,12,25,05,20,1024.28
2022,12,25,05,21,1024.35
2022,12,25,05,22,1024.32
2022,12,25,05,23,1024.35
2022,12,25,05,24,1024.38
2022,12,25,05,25,1024.38
2022,12,25,05,26,1024.38
2022,12,25,05,27,1024.38
2022,12,25,05,28,1024.38
2022,12,25,05,29,1024.38
2022,12,25,05,30,1024.35
2022,12,25,05,31,1024.32
2022,12,25,05,32,1024.28
2022,12,25,05,33,1024.21
2022,12,25,05,34,1024.21
2022,12,25,05,35,1024.21
2022,12,25,05,36,1024.21
2022,12,25,05,37,1024.25
2022,12,25,05,38,1024.25
2022,12,25,05,39,1024.25
2022,12,25,05,40,1024.25
2022,12,25,05,41,1024.25
2022,12,25,05,42,1024.25
2022,12,25,05,43,1024.25
2022,12,25,05,44,1024.21
2022,12,25,05,45,1024.32
2022,12,25,05,46,1024.25
2022,12,25,05,47,1024.25
2022,12,25,05,48,1024.21
2022,12,25,05,49,1024.21
2022,12,25,05,50,1024.21
2022,12,25,05,51,1024.18
2022,12,25,05,52,1024.15
2022,12,25,05,53,1024.08
2022,12,25,05,54,1024.08
2022,12,25,05,55,1024.11
2022,12,25,05,56,1024.11
2022,12,25,05,57,1024.08
2022,12,25,05,58,1024.11
2022,12,25,05,59,1024.11
2022,12,25,06,00,1024.15
2022,12,25,06,01,1024.15
2022,12,25,06,02,1024.11
2022,12,25,06,03,1024.15
2022,12,25,06,04,1024.08
2022,12,25,06,05,1024.11
2022,12,25,06,06,1024.08
2022,12,25,06,07,1024.08
2022,12,25,06,08,1024.08
2022,12,25,06,09,1024.04
2022,12,25,06,10,1024.04
2022,12,25,06,11,1024.08
2022,12,25,06,12,1024.08
2022,12,25,06,13,1024.08
2022,12,25,06,14,1024.11
2022,12,25,06,15,1024.08
2022,12,25,06,16,1024.11
2022,12,25,06,17,1024.11
2022,12,25,06,18,1024.18
2022,12,25,06,19,1024.11
2022,12,25,06,20,1024.15
2022,12,25,06,21,1024.15
2022,12,25,06,22,1024.11
2022,12,25,06,23,1024.08
2022,12,25,06,24,1024.08
2022,12,25,06,25,1024.08
2022,12,25,06,26,1024.04
2022,12,25,06,27,1024.04
2022,12,25,06,28,1023.98
2022,12,25,06,29,1023.98
2022,12,25,06,30,1024.01
2022,12,25,06,31,1023.98
2022,12,25,06,32,1023.94
2022,12,25,06,33,1023.94
2022,12,25,06,34,1023.91
2022,12,25,06,35,1023.94
2022,12,25,06,36,1023.91
2022,12,25,06,37,1023.91
2022,12,25,06,38,1023.98
2022,12,25,06,39,1023.94
2022,12,25,06,40,1023.94
2022,12,25,06,41,1023.98
2022,12,25,06,42,1023.94
2022,12,25,06,43,1023.91
2022,12,25,06,44,1023.94
2022,12,25,06,45,1023.88
2022,12,25,06,46,1023.84
2022,12,25,06,47,1023.91
2022,12,25,06,48,1023.88
2022,12,25,06,49,1023.88
2022,12,25,06,50,1023.84
2022,12,25,06,51,1023.81
2022,12,25,06,52,1023.84
2022,12,25,06,53,1023.84
2022,12,25,06,54,1023.84
2022,12,25,06,55,1023.84
2022,12,25,06,56,1023.91
2022,12,25,06,57,1023.98
2022,12,25,06,58,1023.98
2022,12,25,06,59,1024.04
2022,12,25,07,00,1024.04
2022,12,25,07,01,1024.08
2022,12,25,07,02,1024.08
2022,12,25,07,03,1024.08
2022,12,25,07,04,1024.04
2022,12,25,07,05,1024.01
2022,12,25,07,06,1023.94
2022,12,25,07,07,1023.94
2022,12,25,07,08,1023.91
2022,12,25,07,09,1023.88
2022,12,25,07,10,1023.77
2022,12,25,07,11,1023.81
2022,12,25,07,12,1023.74
2022,12,25,07,13,1023.74
2022,12,25,07,14,1023.81
2022,12,25,07,15,1023.84
2022,12,25,07,16,1023.84
2022,12,25,07,17,1023.84
2022,12,25,07,18,1023.91
2022,12,25,07,19,1024.01
2022,12,25,07,20,1024.04
2022,12,25,07,21,1024.11
2022,12,25,07,22,1024.08
2022,12,25,07,23,1023.98
2022,12,25,07,24,1023.94
2022,12,25,07,25,1023.84
2022,12,25,07,26,1023.77
2022,12,25,07,27,1023.74
2022,12,25,07,28,1023.64
2022,12,25,07,29,1023.54
2022,12,25,07,30,1023.50
2022,12,25,07,31,1023.43
2022,12,25,07,32,1023.43
2022,12,25,07,33,1023.40
2022,12,25,07,34,1023.43
2022,12,25,07,35,1023.43
2022,12,25,07,36,1023.50
2022,12,25,07,37,1023.57
2022,12,25,07,38,1023.60
2022,12,25,07,39,1023.60
2022,12,25,07,40,1023.57
2022,12,25,07,41,1023.57
2022,12,25,07,42,1023.54
2022,12,25,07,43,1023.60
2022,12,25,07,44,1023.54
2022,12,25,07,45,1023.47
2022,12,25,07,46,1023.50
2022,12,25,07,47,1023.47
2022,12,25,07,48,1023.40
2022,12,25,07,49,1023.37
2022,12,25,07,50,1023.33
2022,12,25,07,51,1023.30
2022,12,25,07,52,1023.30
2022,12,25,07,53,1023.27
2022,12,25,07,54,1023.16
2022,12,25,07,55,1023.10
2022,12,25,07,56,1022.99
2022,12,25,07,57,1022.89
2022,12,25,07,58,1022.89
2022,12,25,07,59,1022.86
2022,12,25,08,00,1022.83
2022,12,25,08,01,1022.79
2022,12,25,08,02,1022.79
2022,12,25,08,03,1022.79
2022,12,25,08,04,1022.79
2022,12,25,08,05,1022.72
2022,12,25,08,06,1022.69
2022,12,25,08,07,1022.69
2022,12,25,08,08,1022.66
2022,12,25,08,09,1022.62
2022,12,25,08,10,1022.59
2022,12,25,08,11,1022.55
2022,12,25,08,12,1022.52
2022,12,25,08,13,1022.52
2022,12,25,08,14,1022.55
2022,12,25,08,15,1022.59
2022,12,25,08,16,1022.69
2022,12,25,08,17,1022.76
2022,12,25,08,18,1022.76
2022,12,25,08,19,1022.72
2022,12,25,08,20,1022.69
2022,12,25,08,21,1022.66
2022,12,25,08,22,1022.59
2022,12,25,08,23,1022.52
2022,12,25,08,24,1022.59
2022,12,25,08,25,1022.62
2022,12,25,08,26,1022.62
2022,12,25,08,27,1022.66
2022,12,25,08,28,1022.72
2022,12,25,08,29,1022.69
2022,12,25,08,30,1022.69
2022,12,25,08,31,1022.66
2022,12,25,08,32,1022.72
2022,12,25,08,33,1022.79
2022,12,25,08,34,1022.80
2022,12,25,08,35,1022.93
2022,12,25,08,36,1023.00
2022,12,25,08,37,1023.13
2022,12,25,08,38,1023.13
2022,12,25,08,39,1023.13
2022,12,25,08,40,1023.20
2022,12,25,08,41,1023.16
2022,12,25,08,42,1023.13
2022,12,25,08,43,1023.06
2022,12,25,08,44,1022.99
2022,12,25,08,45,1022.96
2022,12,25,08,46,1022.92
2022,12,25,08,47,1022.76
2022,12,25,08,48,1022.76
2022,12,25,08,49,1022.72
2022,12,25,08,50,1022.72
2022,12,25,08,51,1022.79
2022,12,25,08,52,1022.79
2022,12,25,08,53,1022.79
2022,12,25,08,54,1022.69
2022,12,25,08,55,1022.62
2022,12,25,08,56,1022.62
2022,12,25,08,57,1022.66
2022,12,25,08,58,1022.66
2022,12,25,08,59,1022.62
2022,12,25,09,00,1022.62
2022,12,25,09,01,1022.59
2022,12,25,09,02,1022.52
2022,12,25,09,03,1022.52
2022,12,25,09,04,1022.62
2022,12,25,09,05,1022.72
2022,12,25,09,06,1022.83
2022,12,25,09,07,1022.86
2022,12,25,09,08,1022.89
2022,12,25,09,09,1022.89
2022,12,25,09,10,1022.89
2022,12,25,09,11,1022.93
2022,12,25,09,12,1022.93
2022,12,25,09,13,1022.86
2022,12,25,09,14,1022.89
2022,12,25,09,15,1022.83
2022,12,25,09,16,1022.83
2022,12,25,09,17,1022.72
2022,12,25,09,18,1022.66
2022,12,25,09,19,1022.62
2022,12,25,09,20,1022.59
2022,12,25,09,21,1022.55
2022,12,25,09,22,1022.49
2022,12,25,09,23,1022.62
2022,12,25,09,24,1022.62
2022,12,25,09,25,1022.62
2022,12,25,09,26,1022.59
2022,12,25,09,27,1022.62
2022,12,25,09,28,1022.62
2022,12,25,09,29,1022.59
2022,12,25,09,30,1022.59
2022,12,25,09,31,1022.55
2022,12,25,09,32,1022.52
2022,12,25,09,33,1022.49
2022,12,25,09,34,1022.59
2022,12,25,09,35,1022.59
2022,12,25,09,36,1022.59
2022,12,25,09,37,1022.59
2022,12,25,09,38,1022.52
2022,12,25,09,39,1022.52
2022,12,25,09,40,1022.49
2022,12,25,09,41,1022.49
2022,12,25,09,42,1022.49
2022,12,25,09,43,1022.45
2022,12,25,09,44,1022.45
2022,12,25,09,45,1022.42
2022,12,25,09,46,1022.42
2022,12,25,09,47,1022.39
2022,12,25,09,48,1022.39
2022,12,25,09,49,1022.35
2022,12,25,09,50,1022.35
2022,12,25,09,51,1022.35
2022,12,25,09,52,1022.28
2022,12,25,09,53,1022.28
2022,12,25,09,54,1022.25
2022,12,25,09,55,1022.22
2022,12,25,09,56,1022.08
2022,12,25,09,57,1022.11
2022,12,25,09,58,1022.11
2022,12,25,09,59,1022.08
2022,12,25,10,00,1022.08
2022,12,25,10,01,1022.01
2022,12,25,10,02,1022.05
2022,12,25,10,03,1022.05
2022,12,25,10,04,1022.05
2022,12,25,10,05,1022.08
2022,12,25,10,06,1022.01
2022,12,25,10,07,1022.01
2022,12,25,10,08,1022.05
2022,12,25,10,09,1022.01
2022,12,25,10,10,1022.01
2022,12,25,10,11,1022.05
2022,12,25,10,12,1022.05
2022,12,25,10,13,1022.01
2022,12,25,10,14,1022.01
2022,12,25,10,15,1021.98
2022,12,25,10,16,1021.94
2022,12,25,10,17,1021.91
2022,12,25,10,18,1021.84
2022,12,25,10,19,1021.84
2022,12,25,10,20,1021.81
2022,12,25,10,21,1021.84
2022,12,25,10,22,1021.91
2022,12,25,10,23,1021.94
2022,12,25,10,24,1021.94
2022,12,25,10,25,1021.98
2022,12,25,10,26,1021.98
2022,12,25,10,27,1022.01
2022,12,25,10,28,1021.94
2022,12,25,10,29,1021.91
2022,12,25,10,30,1021.88
2022,12,25,10,31,1021.94
2022,12,25,10,32,1021.94
2022,12,25,10,33,1021.91
2022,12,25,10,34,1021.94
2022,12,25,10,35,1021.94
2022,12,25,10,36,1021.98
2022,12,25,10,37,1021.94
2022,12,25,10,38,1021.94
2022,12,25,10,39,1021.91
2022,12,25,10,40,1021.84
2022,12,25,10,41,1021.81
2022,12,25,10,42,1021.78
2022,12,25,10,43,1021.74
2022,12,25,10,44,1021.74
2022,12,25,10,45,1021.71
2022,12,25,10,46,1021.67
2022,12,25,10,47,1021.64
2022,12,25,10,48,1021.67
2022,12,25,10,49,1021.67
2022,12,25,10,50,1021.71
2022,12,25,10,51,1021.71
2022,12,25,10,52,1021.67
2022,12,25,10,53,1021.61
2022,12,25,10,54,1021.57
2022,12,25,10,55,1021.61
2022,12,25,10,56,1021.54
2022,12,25,10,57,1021.57
2022,12,25,10,58,1021.47
2022,12,25,10,59,1021.44
2022,12,25,11,00,1021.37
2022,12,25,11,01,1021.37
2022,12,25,11,02,1021.30
2022,12,25,11,03,1021.30
2022,12,25,11,04,1021.30
2022,12,25,11,05,1021.30
2022,12,25,11,06,1021.27
2022,12,25,11,07,1021.27
2022,12,25,11,08,1021.23
2022,12,25,11,09,1021.30
2022,12,25,11,10,1021.27
2022,12,25,11,11,1021.34
2022,12,25,11,12,1021.27
2022,12,25,11,13,1021.27
2022,12,25,11,14,1021.27
2022,12,25,11,15,1021.27
2022,12,25,11,16,1021.23
2022,12,25,11,17,1021.20
2022,12,25,11,18,1021.23
2022,12,25,11,19,1021.17
2022,12,25,11,20,1021.17
2022,12,25,11,21,1021.17
2022,12,25,11,22,1021.17
2022,12,25,11,23,1021.17
2022,12,25,11,24,1021.13
2022,12,25,11,25,1021.13
2022,12,25,11,26,1021.10
2022,12,25,11,27,1021.03
2022,12,25,11,28,1021.00
2022,12,25,11,29,1020.93
2022,12,25,11,30,1020.83
2022,12,25,11,31,1020.79
2022,12,25,11,32,1020.79
2022,12,25,11,33,1020.79
2022,12,25,11,34,1020.79
2022,12,25,11,35,1020.79
2022,12,25,11,36,1020.79
2022,12,25,11,37,1020.76
2022,12,25,11,38,1020.76
2022,12,25,11,39,1020.73
2022,12,25,11,40,1020.73
2022,12,25,11,41,1020.73
2022,12,25,11,42,1020.69
2022,12,25,11,43,1020.69
2022,12,25,11,44,1020.66
2022,12,25,11,45,1020.66
2022,12,25,11,46,1020.66
2022,12,25,11,47,1020.66
2022,12,25,11,48,1020.59
2022,12,25,11,49,1020.52
2022,12,25,11,50,1020.49
2022,12,25,11,51,1020.56
2022,12,25,11,52,1020.59
2022,12,25,11,53,1020.62
2022,12,25,11,54,1020.62
2022,12,25,11,55,1020.66
2022,12,25,11,56,1020.66
2022,12,25,11,57,1020.62
2022,12,25,11,58,1020.66
2022,12,25,11,59,1020.62
2022,12,25,12,00,1020.56
2022,12,25,12,01,1020.62
2022,12,25,12,02,1020.56
2022,12,25,12,03,1020.56
2022,12,25,12,04,1020.59
2022,12,25,12,05,1020.56
2022,12,25,12,06,1020.59
2022,12,25,12,07,1020.49
2022,12,25,12,08,1020.45
2022,12,25,12,09,1020.39
2022,12,25,12,10,1020.35
2022,12,25,12,11,1020.32
2022,12,25,12,12,1020.25
2022,12,25,12,13,1020.18
2022,12,25,12,14,1020.25
2022,12,25,12,15,1020.25
2022,12,25,12,16,1020.22
2022,12,25,12,17,1020.25
2022,12,25,12,18,1020.29
2022,12,25,12,19,1020.29
2022,12,25,12,20,1020.29
2022,12,25,12,21,1020.25
2022,12,25,12,22,1020.29
2022,12,25,12,23,1020.29
2022,12,25,12,24,1020.25
2022,12,25,12,25,1020.22
2022,12,25,12,26,1020.29
2022,12,25,12,27,1020.18
2022,12,25,12,28,1020.08
2022,12,25,12,29,1020.01
2022,12,25,12,30,1019.98
2022,12,25,12,31,1019.91
2022,12,25,12,32,1019.88
2022,12,25,12,33,1019.85
2022,12,25,12,34,1019.74
2022,12,25,12,35,1019.74
2022,12,25,12,36,1019.68
2022,12,25,12,37,1019.64
2022,12,25,12,38,1019.61
2022,12,25,12,39,1019.57
2022,12,25,12,40,1019.54
2022,12,25,12,41,1019.51
2022,12,25,12,42,1019.51
2022,12,25,12,43,1019.51
2022,12,25,12,44,1019.54
2022,12,25,12,45,1019.51
2022,12,25,12,46,1019.51
2022,12,25,12,47,1019.51
2022,12,25,12,48,1019.51
2022,12,25,12,49,1019.51
2022,12,25,12,50,1019.47
2022,12,25,12,51,1019.40
2022,12,25,12,52,1019.40
2022,12,25,12,53,1019.34
2022,12,25,12,54,1019.29
2022,12,25,12,55,1019.13
2022,12,25,12,56,1019.13
2022,12,25,12,57,1019.00
2022,12,25,12,58,1019.00
2022,12,25,12,59,1018.96
2022,12,25,13,00,1018.96
2022,12,25,13,01,1018.90
2022,12,25,13,02,1018.90
2022,12,25,13,03,1018.96
2022,12,25,13,04,1018.90
2022,12,25,13,05,1018.93
2022,12,25,13,06,1018.96
2022,12,25,13,07,1018.96
2022,12,25,13,08,1019.00
2022,12,25,13,09,1019.03
2022,12,25,13,10,1018.99
2022,12,25,13,11,1018.86
2022,12,25,13,12,1018.76
2022,12,25,13,13,1018.76
2022,12,25,13,14,1018.80
2022,12,25,13,15,1018.83
2022,12,25,13,16,1018.80
2022,12,25,13,17,1018.80
2022,12,25,13,18,1018.76
2022,12,25,13,19,1018.73
2022,12,25,13,20,1018.69
2022,12,25,13,21,1018.69
2022,12,25,13,22,1018.66
2022,12,25,13,23,1018.59
2022,12,25,13,24,1018.52
2022,12,25,13,25,1018.42
2022,12,25,13,26,1018.39
2022,12,25,13,27,1018.46
2022,12,25,13,28,1018.39
2022,12,25,13,29,1018.42
2022,12,25,13,30,1018.42
2022,12,25,13,31,1018.46
2022,12,25,13,32,1018.42
2022,12,25,13,33,1018.39
2022,12,25,13,34,1018.39
2022,12,25,13,35,1018.29
2022,12,25,13,36,1018.19
2022,12,25,13,37,1018.15
2022,12,25,13,38,1018.08
2022,12,25,13,39,1018.08
2022,12,25,13,40,1018.15
2022,12,25,13,41,1018.19
2022,12,25,13,42,1018.15
2022,12,25,13,43,1018.15
2022,12,25,13,44,1018.15
2022,12,25,13,45,1018.05
2022,12,25,13,46,1018.15
2022,12,25,13,47,1018.15
2022,12,25,13,48,1018.08
2022,12,25,13,49,1018.15
2022,12,25,13,50,1018.02
2022,12,25,13,51,1018.02
2022,12,25,13,52,1017.91
2022,12,25,13,53,1017.88
2022,12,25,13,54,1017.78
2022,12,25,13,55,1017.71
2022,12,25,13,56,1017.64
2022,12,25,13,57,1017.58
2022,12,25,13,58,1017.58
2022,12,25,13,59,1017.58
2022,12,25,14,00,1017.58
2022,12,25,14,01,1017.58
2022,12,25,14,02,1017.47
2022,12,25,14,03,1017.41
2022,12,25,14,04,1017.34
2022,12,25,14,05,1017.31
2022,12,25,14,06,1017.20
2022,12,25,14,07,1017.24
2022,12,25,14,08,1017.24
2022,12,25,14,09,1017.24
2022,12,25,14,10,1017.27
2022,12,25,14,11,1017.34
2022,12,25,14,12,1017.37
2022,12,25,14,13,1017.31
2022,12,25,14,14,1017.27
2022,12,25,14,15,1017.20
2022,12,25,14,16,1017.14
2022,12,25,14,17,1017.10
2022,12,25,14,18,1017.10
2022,12,25,14,19,1017.03
2022,12,25,14,20,1017.07
2022,12,25,14,21,1017.00
2022,12,25,14,22,1017.03
2022,12,25,14,23,1017.03
2022,12,25,14,24,1017.00
2022,12,25,14,25,1016.93
2022,12,25,14,26,1016.93
2022,12,25,14,27,1016.90
2022,12,25,14,28,1016.87
2022,12,25,14,29,1016.87
2022,12,25,14,30,1016.83
2022,12,25,14,31,1016.80
2022,12,25,14,32,1016.87
2022,12,25,14,33,1016.83
2022,12,25,14,34,1016.83
2022,12,25,14,35,1016.70
2022,12,25,14,36,1016.63
2022,12,25,14,37,1016.59
2022,12,25,14,38,1016.55
2022,12,25,14,39,1016.42
2022,12,25,14,40,1016.32
2022,12,25,14,41,1016.29
2022,12,25,14,42,1016.36
2022,12,25,14,43,1016.46
2022,12,25,14,44,1016.46
2022,12,25,14,45,1016.42
2022,12,25,14,46,1016.39
2022,12,25,14,47,1016.36
2022,12,25,14,48,1016.29
2022,12,25,14,49,1016.22
2022,12,25,14,50,1016.15
2022,12,25,14,51,1016.19
2022,12,25,14,52,1016.15
2022,12,25,14,53,1016.19
2022,12,25,14,54,1016.22
2022,12,25,14,55,1016.22
2022,12,25,14,56,1016.22
2022,12,25,14,57,1016.22
2022,12,25,14,58,1016.15
2022,12,25,14,59,1016.05
2022,12,25,15,00,1016.02
2022,12,25,15,01,1016.02
2022,12,25,15,02,1016.05
2022,12,25,15,03,1016.05
2022,12,25,15,04,1016.12
2022,12,25,15,05,1016.09
2022,12,25,15,06,1016.12
2022,12,25,15,07,1016.12
2022,12,25,15,08,1016.12
2022,12,25,15,09,1016.09
2022,12,25,15,10,1016.09
2022,12,25,15,11,1016.02
2022,12,25,15,12,1016.02
2022,12,25,15,13,1016.02
2022,12,25,15,14,1016.09
2022,12,25,15,15,1016.02
2022,12,25,15,16,1016.05
2022,12,25,15,17,1015.98
2022,12,25,15,18,1015.95
2022,12,25,15,19,1015.85
2022,12,25,15,20,1015.82
2022,12,25,15,21,1015.85
2022,12,25,15,22,1015.85
2022,12,25,15,23,1015.85
2022,12,25,15,24,1015.82
2022,12,25,15,25,1015.78
2022,12,25,15,26,1015.82
2022,12,25,15,27,1015.78
2022,12,25,15,28,1015.68
2022,12,25,15,29,1015.68
2022,12,25,15,30,1015.65
2022,12,25,15,31,1015.58
2022,12,25,15,32,1015.61
2022,12,25,15,33,1015.58
2022,12,25,15,34,1015.54
2022,12,25,15,35,1015.51
2022,12,25,15,36,1015.51
2022,12,25,15,37,1015.41
2022,12,25,15,38,1015.24
2022,12,25,15,39,1015.27
2022,12,25,15,40,1015.27
2022,12,25,15,41,1015.24
2022,12,25,15,42,1015.17
2022,12,25,15,43,1015.17
2022,12,25,15,44,1015.24
2022,12,25,15,45,1015.10
2022,12,25,15,46,1015.04
2022,12,25,15,47,1015.04
2022,12,25,15,48,1015.00
2022,12,25,15,49,1014.97
2022,12,25,15,50,1014.90
2022,12,25,15,51,1014.77
2022,12,25,15,52,1014.80
2022,12,25,15,53,1014.73
2022,12,25,15,54,1014.83
2022,12,25,15,55,1014.83
2022,12,25,15,56,1014.87